Norwood, MA

10:50 PM EDT on May 22, 2017 (GMT -0400)
Norwood Memorial

Weather History for KOWD - April, 2014

Change the Weather History Date:

Monday, April 28, 2014

  Actual Average Record
Temperature  
Mean Temperature 48 °F -  
Max Temperature 57 °F 62 °F 84 °F (2017)
Min Temperature 39 °F 38 °F 30 °F (2006)
Degree Days  
Heating Degree Days 17    
Moisture  
Dew Point 37 °F    
Average Humidity 65    
Maximum Humidity 82    
Minimum Humidity 46    
Precipitation  
Precipitation 0.00 in - - ()
Sea Level Pressure  
Sea Level Pressure 30.08 in    
Wind  
Wind Speed 8 mph (NNE)    
Max Wind Speed 14 mph    
Max Gust Speed 22 mph    
Visibility 10 miles    
Events      
Averages and records for this station are not official NWS values.
T = Trace of Precipitation, MM = Missing Value Source: NWS Daily Summary

Daily Weather History Graph

Daily Weather History Graph

Search for Another Location

Airport or City:

Trip Planner

Search our weather history database for the weather conditions in past years. The results will help you decide how hot, cold, wet, or windy it might be!

Date:

Astronomy

Apr. 28, 2014 Rise Set
Actual Time 5:44 AM EDT 7:40 PM EDT
Civil Twilight 5:14 AM EDT 8:10 PM EDT
Nautical Twilight 4:37 AM EDT 8:48 PM EDT
Astronomical Twilight 3:57 AM EDT 9:28 PM EDT
Moon 5:21 AM EDT (4/28) 7:14 PM EDT (4/28)
Length of Visible Light 14h 56m
Length of Day
13h 56m
Waning Crescent, 0% of the Moon is Illuminated
Apr 28
Waning Crescent
Apr 29
New
May 6
First Quarter
May 14
Full
May 21
Last Quarter

Hourly Weather History & Observations

Time (EDT) Temp. Windchill Dew Point Humidity Pressure Visibility Wind Dir Wind Speed Gust Speed Precip Events Conditions
12:53 AM 43.0 °F 39.5 °F 36.0 °F 76% 30.05 in 10.0 mi NW 5.8 mph - N/A   Clear
1:53 AM 42.1 °F 37.7 °F 36.0 °F 79% 30.05 in 10.0 mi NNW 6.9 mph - N/A   Clear
2:53 AM 41.0 °F 37.1 °F 35.1 °F 79% 30.04 in 10.0 mi NW 5.8 mph - N/A   Clear
4:53 AM 39.0 °F 36.8 °F 34.0 °F 82% 30.01 in 10.0 mi NNW 3.5 mph - N/A   Clear
6:53 AM 41.0 °F 37.1 °F 35.1 °F 79% 30.01 in 10.0 mi NW 5.8 mph - N/A   Clear
7:53 AM 45.0 °F 40.1 °F 36.0 °F 71% 30.03 in 10.0 mi NW 9.2 mph - N/A   Clear
8:53 AM 50.0 °F - 36.0 °F 59% 30.04 in 10.0 mi North 9.2 mph - N/A   Clear
9:53 AM 51.1 °F - 35.1 °F 54% 30.03 in 10.0 mi North 10.4 mph 18.4 mph N/A   Scattered Clouds
10:53 AM 53.1 °F - 35.1 °F 50% 30.04 in 10.0 mi NNW 9.2 mph - N/A   Overcast
11:53 AM 54.0 °F - 35.1 °F 49% 30.04 in 10.0 mi ENE 9.2 mph - N/A   Mostly Cloudy
12:53 PM 55.9 °F - 37.0 °F 49% 30.02 in 10.0 mi NE 8.1 mph 16.1 mph N/A   Overcast
1:53 PM 55.9 °F - 37.0 °F 49% 30.02 in 10.0 mi NE 8.1 mph - N/A   Mostly Cloudy
2:53 PM 57.9 °F - 37.0 °F 46% 30.02 in 10.0 mi NNE 11.5 mph - N/A   Mostly Cloudy
3:53 PM 55.9 °F - 37.0 °F 49% 30.04 in 10.0 mi Variable 6.9 mph - N/A   Overcast
5:53 PM 51.1 °F - 37.9 °F 61% 30.10 in 10.0 mi NE 12.7 mph - N/A   Overcast
6:53 PM 50.0 °F - 37.9 °F 63% 30.12 in 10.0 mi NE 10.4 mph - N/A   Overcast
7:53 PM 48.0 °F - 39.0 °F 71% 30.16 in 10.0 mi NE 6.9 mph - N/A   Overcast
8:53 PM 48.0 °F - 39.0 °F 71% 30.18 in 10.0 mi NE 5.8 mph - N/A   Overcast
9:53 PM 46.9 °F - 39.0 °F 74% 30.19 in 10.0 mi Variable 4.6 mph - N/A   Overcast
10:43 PM 48.0 °F - 39.0 °F 71% 30.20 in 10.0 mi NE 8.1 mph 18.4 mph N/A   Overcast
10:53 PM 48.0 °F - 37.9 °F 68% 30.21 in 10.0 mi NE 13.8 mph 21.9 mph N/A   Overcast
11:53 PM 46.0 °F 40.6 °F 39.0 °F 76% 30.22 in 10.0 mi ENE 11.5 mph 20.7 mph N/A   Overcast